Retour au catalogue

FLOCK 4H 14

ActifScienceSSO
NORAD 66717·PAYLOAD·🇺🇸 United States

Lancé Nov 28, 2025 depuis Vandenberg Space Force Base

Loading…

Prochains Passages (prochaines 24 heures)

TLE

FraisSource: CelesTrak SupGP

Époque: Sep 14, 2026, 16:45 UTC

1 66717C 25276BD  26257.69797454  .00001299  00000+0  56916-4 0  2570
2 66717  97.4127 330.2860 0001498  61.8840 268.9282 15.22086373    15

Suivez FLOCK 4H 14 en temps réel avec AllMySat

Download on the App Store